Regional Weather Roundup
Issued by NWS

Home | Current Version | Previous Version | Graphics & Text | Print | Product List | Glossary On
Versions: 1 2 3 4 5 6 7 8 9 10 11 12 13 14 15 16 17 18 19 20 21 22 23 24 25 26 27 28 29 30 31 32 33 34 35 36 37 38 39 40 41 42 43 44 45 46 47 48 49 50
000
ASUS43 KLOT 011208
RWRIL

ILLINOIS REGIONAL WEATHER ROUNDUP
NATIONAL WEATHER SERVICE CHICAGO/ROMEOVILLE IL
700 AM CDT SUN MAY 01 2016

NOTE: "FAIR" INDICATES FEW OR NO CLOUDS BELOW 12,000 FEET WITH NO
SIGNIFICANT WEATHER AND/OR OBSTRUCTIONS TO VISIBILITY.

* THESE STATIONS ARE NOT UNDER NWS QUALITY CONTROL. THEY ALSO MAY NOT
  REPORT WEATHER SUCH AS PRECIPITATION OR FOG.

ILZ001-002-007-009-015-016-024-011300-
NORTHWEST ILLINOIS

CITY           SKY/WX    TMP DP  RH WIND       PRES   REMARKS
MOLINE         CLOUDY    48  45  89 NE8       29.95R FOG
6HR MIN TEMP:  47; 6HR MAX TEMP:  48;

STERLING*      CLOUDY    46  45  93 NE7       29.97R
SAVANNA*       CLOUDY    46  44  93 N9        29.98R
$$

ILZ003-004-008-010-011-017-018-011300-
NORTH CENTRAL ILLINOIS

CITY           SKY/WX    TMP DP  RH WIND       PRES   REMARKS
ROCKFORD       CLOUDY    46  43  89 NE14      29.99R
6HR MIN TEMP:  46; 6HR MAX TEMP:  47; 6HR PCP: TRACE;

FREEPORT*      CLOUDY    44  43  97 NE10      30.00R FOG
ROCHELLE*      CLOUDY    45  44  97 NE16      29.97R FOG
DE KALB*       CLOUDY    45  44  97 NE13      29.97R FOG
$$

ILZ005-006-012>014-019>023-011300-
NORTHEAST ILLINOIS

CITY           SKY/WX    TMP DP  RH WIND       PRES   REMARKS
CHICAGO-OHARE  FOG       42  42 100 N13       29.96R VSB 1/4
6HR MIN TEMP:  42; 6HR MAX TEMP:  45; 6HR PCP:  0.02;

CHICAGO-MIDWAY FOG       45  43  93 N10       29.95R VSB 1
6HR MIN TEMP:  45; 6HR MAX TEMP:  47; 6HR PCP: TRACE;

AURORA         FOG       46  45  96 NE14      29.95S VSB 3/4
6HR MIN TEMP:  46; 6HR MAX TEMP:  47;

LANSING*       CLOUDY    46  46  99 NE6       29.94R FOG
JOLIET*        FOG       48  47  99 N9        29.95R VSB 1
WAUKEGAN       FOG       42  42 100 N9G20     29.98R VSB 1
6HR MIN TEMP:  42; 6HR MAX TEMP:  44; 6HR PCP: TRACE;

DUPAGE AIRPORT FOG       44  42  93 NE12      29.95R VSB 3/4
6HR MIN TEMP:  44; 6HR MAX TEMP:  46;

KANKAKEE*      FOG       48  47  97 NE5       29.93R VSB 3/4
WHEELING       CLOUDY    42  42 100 NE9       29.98R FOG
6HR MIN TEMP:  42; 6HR MAX TEMP:  45;

MORRIS*        FOG       47  46  97 N3        29.94R VSB 1/2
ROMEOVILLE*    FOG       45  45  99 NE9       29.95R VSB 1/2
NORTHERLY ISL    N/A     43  42  97 N12         N/A
NORTHERLY ISL    N/A     43  42  97 N12         N/A
$$

LMZ740>746-011300-
SOUTHERN LAKE MICHIGAN

STATION/POSITION SKY/WX   TEMP    WIND        PRES    VSBY  WAVE
                          AIR SEA DIR/SP/G                  HT/PER
                          (F)     (DEG/KT/KT) (MB)    (MI)  (FT/S)
SOUTHERN BUOY              41 40   40/ 14/ 16 1015.0R         2/ 4
BURNHAM HARBOR             43     340/ 10/ 14   N/A
CALUMET HARBOR             44      20/ 11/ 14 1013.0R
BURNS HARBOR               46      30/ 12/ 13 1013.5R
ST. JOSEPH                 49 49                N/A           2/ 4
$$

ILZ025>027-034>036-040-047-049-050-058-095>099-011300-
WEST-CENTRAL ILLINOIS

CITY           SKY/WX    TMP DP  RH WIND       PRES   REMARKS
QUINCY         FOG       49  49 100 N10       29.93R VSB 3/4
GALESBURG*     CLOUDY    46  46  99 NE8       29.95R FOG
MACOMB*        FOG       47  47 100 NE10      29.96R VSB 1/2
JACKSONVILLE*  CLOUDY    52  51  96 N8        29.90R FOG
PITTSFIELD*    FOG       53  53 100 N9        29.91R VSB 1
$$

ILZ028>032-037-038-041>044-048-051>054-059>061-011300-
CENTRAL ILLINOIS

CITY           SKY/WX    TMP DP  RH WIND       PRES   REMARKS
PONTIAC        CLOUDY    49  49 100 N9        29.94R FOG
BLOOMINGTON    FOG       49  49 100 NE10      29.92S VSB 1/8
DECATUR        FOG       56  54  93 N7        29.90R VSB 1/4
PEORIA         FOG       49  47  93 NE7       29.93R VSB 1
6HR MIN TEMP:  48; 6HR MAX TEMP:  49;

LACON*         CLOUDY    47  46  97 NE5       29.95R FOG
LINCOLN*       CLOUDY    51  51 100 N7        29.91R FOG
SPRINGFIELD    FOG       53  52  96 N8        29.91R VSB 3/4
6HR MIN TEMP:  53; 6HR MAX TEMP:  57;

TAYLORVILLE    FOG       54  54 100 N7        29.89R VSB<1/4
$$

ILZ033-039-045-046-055>057-062-063-011300-
EAST-CENTRAL ILLINOIS

CITY           SKY/WX    TMP DP  RH WIND       PRES   REMARKS
CHAMPAIGN      FOG       53  52  96 N10       29.89R VSB 1/4
RANTOUL*       FOG       52  52  99 NE6       29.90R VSB 1/2
MATTOON        SUNNY     56  53  90 W3        29.88R
PARIS*         CLOUDY    56  54  94 CALM      29.89R
$$

ILZ079-100>102-011300-
SOUTHWEST ILLINOIS

CITY           SKY/WX    TMP DP  RH WIND       PRES   REMARKS
ALTON          SUNNY     53  53  99 CALM      29.88S FOG
BELLEVILLE     SUNNY     57  57 100 CALM      29.87R FOG
CAHOKIA*       PTCLDY    56  54  93 CALM      29.88R
SPARTA*        SUNNY     56  56  99 CALM      29.89R FOG
$$

ILZ064>066-069>071-074>076-080>082-084>086-088>090-092>094-011300-
SOUTH-CENTRAL ILLINOIS

CITY           SKY/WX    TMP DP  RH WIND       PRES   REMARKS
CARBONDALE     SUNNY     57  55  93 NW3       29.88R
6HR MIN TEMP:  56; 6HR MAX TEMP:  61; 6HR PCP:  0.10;

CAIRO*         CLOUDY    63  62  99 E5        29.89R
EFFINGHAM*     SUNNY     56  56 100 CALM      29.91R
MARION         MOSUNNY   61  57  88 SE6       29.89R
MT. VERNON     SUNNY     57  52  82 CALM      29.89R
CENTRALIA*     MOSUNNY   58  58 100 CALM      29.87R
SALEM*         MOSUNNY   60  57  90 CALM      29.87S
METROPOLIS*    CLOUDY    64  59  86 SE5       29.91R
$$

ILZ067-068-072-073-078-083-087-091-011300-
SOUTHEAST ILLINOIS

CITY           SKY/WX    TMP DP  RH WIND       PRES   REMARKS
LAWRENCEVILLE  SUNNY     59  58  96 N6          N/A
FLORA*         SUNNY     61  57  88 CALM      29.87S
FAIRFIELD*     CLOUDY    59  57  96 CALM      29.87R
HARRISBURG*    CLOUDY    59  58  96 CALM      29.89R
ROBINSON*      SUNNY     56  55  99 CALM      29.89R
CARMI*         CLOUDY    59  57  95 S3        29.87S
$$

ABBREVIATIONS USED IN REMARKS
   TC - TEMPERATURE IN CELSIUS
  WCI - WIND CHILL INDEX
   HX - HEAT INDEX
  VSB - VISIBILITY
$$





USA.gov is the U.S. government's official web portal to all federal, state and local government web resources and services.